Flag for Austria Weather past 2 weeks in Graz, Styria, Austria

Now
86 °F

Passing clouds.


Feels Like: 89 °F
Forecast: 63 / 82 °F
Wind: 5 mph from Southeast

Location: Graz-Thalerhof-Flughafen

Current Time: Jul 7, 2015 at 11:19:52 AM

Latest Report: Jul 7, 2015 at 10:50 AM


Visibility: N/A

Pressure: 30.04 "Hg

Humidity: 55%

Dew point: 68 °F

Location of GrazLocation

Historic Weather in Graz — Graph

°F

Graz temperature yesterday

Maximum temperature yesterday: 91 °F (at 4:50 PM)
Minimum temperature yesterday: 63 °F (at 3:20 AM)
Average temperature yesterday: 78 °F

Past Weeks' High & Low Weather Summary

 TemperatureHumidityPressure
High91 °F (Jul 6, 4:50 PM)100% (Jun 23, 8:20 PM)30.33 "Hg (Jun 23, 8:20 PM)
Low46 °F (Jun 25, 4:20 AM)31% (Jul 6, 12:20 PM)29.80 "Hg (Jun 23, 2:20 AM)
Average68 °F70%30.13 "Hg
* Reported Jun 22 9:20 AM — Jul 7 9:50 AM, Graz, Weather by CustomWeather, © 2015

Note: Actual official high and low records may vary slightly from our data, if they occured in-between our weather recording intervals... More about our weather records

Advertising

Graz weather history for previous 24 hours

 ConditionsComfort  
Time TempWeatherWind HumidityBarometerVisibility
9:50 AM
Tue, Jul 7
82 °FSunny.2 mph62%30.04 "Hg10 mi
9:20 AM82 °FSunny.2 mph62%30.04 "Hg10 mi
8:50 AM81 °FSunny.1 mph66%30.07 "Hg10 mi
8:20 AM79 °FSunny.1 mph70%30.07 "Hg10 mi
7:50 AM75 °FSunny.2 mph74%30.07 "Hg10 mi
7:20 AM75 °FSunny.1 mph74%30.07 "Hg10 mi
6:50 AM73 °FSunny.1 mph78%30.07 "Hg10 mi
6:20 AM70 °FSunny.1 mph88%30.07 "Hg10 mi
5:50 AM66 °FClear.2 mph94%30.07 "Hg10 mi
5:20 AM68 °FMild.3 mph94%30.07 "HgN/A
4:50 AM70 °FClear.1 mph88%30.07 "Hg10 mi
4:20 AM68 °FClear.1 mph94%30.07 "Hg10 mi
3:50 AM70 °FClear.2 mph88%30.07 "Hg10 mi
3:20 AM70 °FPassing clouds.1 mph88%30.09 "HgN/A
2:50 AM72 °FMild.1 mph83%30.07 "HgN/A
2:20 AM70 °FMild.1 mph88%30.09 "HgN/A
1:50 AM70 °FMild.1 mph88%30.09 "HgN/A
1:20 AM72 °FMild.2 mph83%30.09 "HgN/A
12:50 AM72 °FMild.1 mph83%30.09 "HgN/A
12:20 AM73 °FMild.1 mph78%30.09 "HgN/A
11:50 PM
Mon, Jul 6
75 °FClear.3 mph69%30.09 "Hg10 mi
11:20 PM75 °FClear.2 mph69%30.09 "Hg10 mi
10:50 PM75 °FClear.2 mph74%30.09 "Hg10 mi
10:20 PM77 °FClear.2 mph69%30.09 "Hg10 mi
9:50 PM79 °FSunny.1 mph65%30.07 "Hg10 mi
9:20 PM79 °FSunny.2 mph65%30.07 "Hg10 mi
8:50 PM81 °FSunny.2 mph62%30.07 "Hg10 mi
8:20 PM84 °FSunny.2 mph51%30.07 "Hg10 mi
7:50 PM86 °FSunny.3 mph46%30.07 "Hg10 mi
7:20 PM88 °FSunny.6 mph43%30.07 "Hg10 mi
6:50 PM88 °FScattered clouds.8 mph43%30.07 "HgN/A
6:20 PM90 °FScattered clouds.8 mph38%30.07 "HgN/A
5:50 PM91 °FScattered clouds.7 mph36%30.07 "HgN/A
5:20 PM91 °FScattered clouds.5 mph34%30.07 "HgN/A
4:50 PM91 °FScattered clouds.2 mph32%30.07 "HgN/A
4:20 PM90 °FScattered clouds.1 mph36%30.07 "HgN/A
3:50 PM90 °FScattered clouds.3 mph36%30.07 "HgN/A
3:20 PM90 °FScattered clouds.3 mph36%30.07 "HgN/A
2:50 PM88 °FPartly sunny.3 mph46%30.07 "HgN/A
2:20 PM86 °FPartly sunny.5 mph46%30.07 "HgN/A
1:50 PM86 °FPartly sunny.3 mph40%30.07 "HgN/A
1:20 PM88 °FPartly sunny.3 mph35%30.07 "HgN/A
12:50 PM90 °FScattered clouds.6 mph31%30.07 "HgN/A
12:20 PM90 °FScattered clouds.8 mph31%30.07 "HgN/A
11:50 AM88 °FScattered clouds.13 mph35%30.07 "HgN/A
11:20 AM90 °FScattered clouds.13 mph33%30.07 "HgN/A
Weather by CustomWeather, © 2015

See weather overviewHow to use our weather pages